Arlington, TX

2:02 PM CST on February 14, 2016 (GMT -0600)
Arlington Municipal

Weather History for KGKY - August, 2014

Change the Weather History Date:

Thursday, August 28, 2014

  Actual Average (KRBD) Record (KRBD)
Temperature  
Mean Temperature 83 °F -  
Max Temperature 96 °F 91 °F 109 °F (2011)
Min Temperature 71 °F 71 °F 66 °F (2010)
Cooling Degree Days 18    
Growing Degree Days 33 (Base 50)    
Moisture  
Dew Point 64 °F    
Average Humidity 54    
Maximum Humidity 78    
Minimum Humidity 31    
Precipitation  
Precipitation 0.00 in - - ()
Sea Level Pressure  
Sea Level Pressure 29.90 in    
Wind  
Wind Speed 5 mph (SE)    
Max Wind Speed 13 mph    
Max Gust Speed 20 mph    
Visibility 10 miles    
Events      
Averages and records for this station are not official NWS values.
T = Trace of Precipitation, MM = Missing Value Source: NWS Daily Summary

Daily Weather History Graph

Daily Weather History Graph

Search for Another Location

Airport or City:

Trip Planner

Search our weather history database for the weather conditions in past years. The results will help you decide how hot, cold, wet, or windy it might be!

Date:

Astronomy

Aug. 28, 2014 Rise Set
Actual Time 7:00 AM CDT 7:57 PM CDT
Civil Twilight 6:35 AM CDT 8:23 PM CDT
Nautical Twilight 6:05 AM CDT 8:53 PM CDT
Astronomical Twilight 5:34 AM CDT 9:23 PM CDT
Moon 9:42 AM CDT (8/28) 9:35 PM CDT (8/28)
Length of Visible Light 13h 47m
Length of Day
12h 57m
Waxing Crescent, 9% of the Moon is Illuminated
Aug 28
Waxing Crescent
Sep 2
First Quarter
Sep 8
Full
Sep 15
Last Quarter
Sep 24
New

Hourly Weather History & Observations

Time (CDT) Temp. Heat Index Dew Point Humidity Pressure Visibility Wind Dir Wind Speed Gust Speed Precip Events Conditions
12:53 AM 73.0 °F - 62.1 °F 68% 29.97 in 10.0 mi Calm Calm - N/A   Clear
1:53 AM 72.0 °F - 62.1 °F 71% 29.96 in 10.0 mi Calm Calm - N/A   Clear
2:53 AM 71.1 °F - 62.1 °F 73% 29.95 in 10.0 mi Calm Calm - N/A   Clear
3:53 AM 73.9 °F - 62.1 °F 66% 29.94 in 10.0 mi SSE 4.6 mph - N/A   Clear
4:53 AM 73.9 °F - 62.1 °F 66% 29.94 in 10.0 mi SSE 4.6 mph - N/A   Clear
5:53 AM 73.0 °F - 63.0 °F 71% 29.93 in 10.0 mi SE 4.6 mph - N/A   Clear
6:53 AM 71.1 °F - 64.0 °F 78% 29.94 in 10.0 mi Calm Calm - N/A   Clear
7:53 AM 75.0 °F - 64.9 °F 71% 29.94 in 10.0 mi Calm Calm - N/A   Clear
8:53 AM 80.1 °F 82.9 °F 69.1 °F 69% 29.95 in 10.0 mi South 6.9 mph - N/A   Clear
10:53 AM 87.1 °F 89.2 °F 66.0 °F 49% 29.96 in 10.0 mi SSE 9.2 mph 19.6 mph N/A   Clear
11:53 AM 89.1 °F 92.1 °F 66.9 °F 48% 29.94 in 10.0 mi South 11.5 mph - N/A   Clear
12:53 PM 90.0 °F 92.4 °F 66.0 °F 45% 29.92 in 10.0 mi ESE 8.1 mph - N/A   Scattered Clouds
1:53 PM 91.9 °F 93.3 °F 64.0 °F 39% 29.90 in 10.0 mi ESE 11.5 mph - N/A   Partly Cloudy
2:53 PM 93.9 °F 94.8 °F 62.1 °F 35% 29.88 in 10.0 mi ESE 11.5 mph - N/A   Clear
3:53 PM 93.0 °F 93.8 °F 62.1 °F 36% 29.85 in 10.0 mi East 9.2 mph - N/A   Clear
4:53 PM 93.0 °F 93.0 °F 61.0 °F 34% 29.83 in 10.0 mi South 9.2 mph - N/A   Clear
5:53 PM 95.0 °F 94.8 °F 60.1 °F 31% 29.81 in 10.0 mi SE 12.7 mph - N/A   Clear
6:53 PM 93.9 °F 94.8 °F 62.1 °F 35% 29.81 in 10.0 mi SE 9.2 mph - N/A   Clear
7:53 PM 91.0 °F 91.9 °F 63.0 °F 39% 29.81 in 10.0 mi ESE 9.2 mph - N/A   Scattered Clouds
8:53 PM 90.0 °F 91.3 °F 64.0 °F 42% 29.83 in 10.0 mi ESE 8.1 mph - N/A   Mostly Cloudy
9:53 PM 87.1 °F 89.9 °F 66.9 °F 51% 29.85 in 10.0 mi SE 11.5 mph - N/A   Clear
10:53 PM 84.9 °F 88.2 °F 68.0 °F 57% 29.87 in 10.0 mi SSE 10.4 mph - N/A   Clear
11:53 PM 82.9 °F 85.8 °F 68.0 °F 60% 29.89 in 10.0 mi SSE 5.8 mph - N/A   Clear